Location: Newark
(23.5328°S, 46.7919°W)
Time: 07:35:09
(UTC+00:00)

ISS - Visible Passes

Search period start: 06 March 2021 00:00
Search period end: 16 March 2021 00:00
Orbit: 417 x 422 km, 51.6° (Epoch: 05 March)

Date Brightness Start Highest point End Pass type
(mag) Time Alt. Az. Time Alt. Az. Time Alt. Az.
06 Mar -2.6 22:42:06 10° SSW 22:45:05 29° SE 22:45:05 29° SE visible
07 Mar -1.8 21:55:20 10° S 21:57:35 16° SE 21:59:49 10° E visible
07 Mar -1.1 23:31:27 10° WSW 23:32:59 20° W 23:32:59 20° W visible
08 Mar -3.3 22:43:36 10° SW 22:46:58 57° NW 22:48:02 37° N visible
09 Mar -3.7 21:56:08 10° SSW 21:59:31 62° SE 22:02:52 10° NE visible
10 Mar -0.8 22:46:55 10° W 22:48:33 13° NW 22:50:11 10° NNW visible
11 Mar -1.6 21:58:18 10° WSW 22:01:12 26° NW 22:04:04 10° N visible
